Tracking 19242 objects as of 15-Aug-2018
HD Live streaming from Space Station
objects crossing your sky now

FENGYUN 1C DEB

Track FENGYUN 1C DEB now!
10-day predictions


NORAD ID: 29953
Int'l Code: 1999-025KB
Perigee: 858.0 km
Apogee: 1,022.3 km
Inclination: 99.1 °
Period: 103.7 minutes
Semi major axis: 7311 km
RCS: 0.046 m2 (small)
Launch date: May 10, 1999
Source: People's Republic of China (PRC)
Launch site: Taiyaun Space Center, China (TSC)

Note: This is SATELLITE DEBRIS
aabbcc
Your satellite tracking list
Your tracking list is empty




NASA's NSSDC Master Catalog

Two Line Element Set (TLE):
1 29953U 99025KB  18226.84685730  .00000019  00000-0  49937-4 0  9999
2 29953  99.0974 276.0951 0112356 342.6404  71.2416 13.88742159587075
Source of the keplerian elements: AFSPC